Hourly Data Report for November 05, 2017

All times are specified in Local Standard Time (LST). Add 1 hour to adjust for Daylight Saving Time where and when it is observed.

DAUPHIN
MANITOBA

51°06'03.000" N
100°03'09.000" W
304.50 m
5040689
71036
YDN

Download Data

Hourly Data (November 2017)
Hourly Data Report for November 5, 2017
Temp Definition
°C
Dew Point Temp Definition
°C
Rel Hum Definition
%
Wind Dir Definition
10's deg

Wind Spd Definition
km/h
Visibility Definition
km
Stn Press Definition
kPa
Hmdx Definition


Wind Chill Definition


Weather Definition


TIME
00:00 Legend Double Dagger -6.0 -7.8 87 28 22 16.1 97.34   -13 Snow
01:00 Legend Double Dagger -5.7 -7.4 88 29 22 6.4 97.43   -13 Snow
02:00 Legend Double Dagger -5.4 -7.7 84 32 15 16.1 97.52   -11 LegendNANA
03:00 Legend Double Dagger -5.9 -8.7 81 30 17 16.1 97.59   -12 LegendNANA
04:00 Legend Double Dagger -6.5 -9.4 80 31 17 16.1 97.64   -13 LegendNANA
05:00 Legend Double Dagger -9.2 -11.3 85 27 24 16.1 97.71   -18 LegendNANA
06:00 Legend Double Dagger -9.8 -11.7 86 27 24 16.1 97.74   -18 LegendNANA
07:00 Legend Double Dagger -10.0 -11.9 86 27 30 16.1 97.77   -20 LegendNANA
08:00 Legend Double Dagger -9.7 -12.4 81 25 24 16.1 97.79   -18 LegendNANA
09:00 Legend Double Dagger -9.8 -12.7 80 27 30 16.1 97.85   -19 Snow
10:00 Legend Double Dagger -9.7 -12.9 78 27 39 14.5 97.87   -20 Snow
11:00 Legend Double Dagger -9.0 -12.8 74 27 30 14.5 97.91   -18 Snow
12:00 Legend Double Dagger -8.5 -12.3 74 28 37 8.1 97.87   -18 Snow
13:00 Legend Double Dagger -8.7 -11.9 78 28 32 16.1 97.87   -18 Snow
14:00 Legend Double Dagger -8.7 -12.4 75 27 32 16.1 97.89   -18 Snow
15:00 Legend Double Dagger -9.5 -13.3 74 27 34 16.1 97.87   -19 LegendNANA
16:00 Legend Double Dagger -9.4 -13.4 73 27 34 16.1 97.85   -19 LegendNANA
17:00 Legend Double Dagger -9.6 -13.6 73 28 22 16.1 97.88   -18 LegendNANA
18:00 Legend Double Dagger -9.2 -13.2 73 26 34 16.1 97.86   -19 LegendNANA
19:00 Legend Double Dagger -9.4 -13.1 75 26 32 16.1 97.90   -19 LegendNANA
20:00 Legend Double Dagger -9.2 -12.5 77 27 43 9.7 97.89   -20 Haze
21:00 Legend Double Dagger -9.8 -13.0 78 26 34 16.1 97.97   -20 LegendNANA
22:00 Legend Double Dagger -9.5 -12.5 79 27 39 16.1 97.97   -20 LegendNANA
23:00 Legend Double Dagger -10.0 -12.7 81 26 32 16.1 98.02   -20 LegendNANA

Notes on Data Quality.

Legend

  • E = Estimated
  • M = Missing
  • NA = Not Available
  • ‡ = Partner data that is not subject to review by the National Climate Archives
Date modified: